Monroe, MI

8:05 AM EDT on August 18, 2017 (GMT -0400)
Custer

Weather History for KTTF - January, 2014

Change the Weather History Date:

Saturday, January 25, 2014

  Actual Average Record
Temperature  
Mean Temperature 18 °F -  
Max Temperature 28 °F 33 °F 70 °F (1950)
Min Temperature 8 °F 19 °F -11 °F (2004)
Degree Days  
Heating Degree Days 47    
Moisture  
Dew Point 12 °F    
Average Humidity 76    
Maximum Humidity 93    
Minimum Humidity 49    
Precipitation  
Precipitation 0.00 in - - ()
Sea Level Pressure  
Sea Level Pressure 29.47 in    
Wind  
Wind Speed 19 mph (West)    
Max Wind Speed 26 mph    
Max Gust Speed 36 mph    
Visibility 6 miles    
Events Snow    
Averages and records for this station are not official NWS values.
T = Trace of Precipitation, MM = Missing Value Source: NWS Daily Summary

Daily Weather History Graph

Daily Weather History Graph

Search for Another Location

Airport or City:

Trip Planner

Search our weather history database for the weather conditions in past years. The results will help you decide how hot, cold, wet, or windy it might be!

Date:

Astronomy

Jan. 25, 2014 Rise Set
Actual Time 7:52 AM EST 5:39 PM EST
Civil Twilight 7:22 AM EST 6:09 PM EST
Nautical Twilight 6:48 AM EST 6:43 PM EST
Astronomical Twilight 6:15 AM EST 7:16 PM EST
Moon 2:23 AM EST (1/25) 12:39 PM EST (1/25)
Length of Visible Light 10h 47m
Length of Day
9h 47m
Waning Crescent, 34% of the Moon is Illuminated
Jan 25
Waning Crescent
Jan 30
New
Feb 6
First Quarter
Feb 14
Full
Feb 22
Last Quarter

Hourly Weather History & Observations

Time (EST) Temp. Windchill Dew Point Humidity Pressure Visibility Wind Dir Wind Speed Gust Speed Precip Events Conditions
12:15 AM 19.4 °F 2.5 °F 14.0 °F 80% 29.55 in 2.0 mi SW 23.0 mph 29.9 mph N/A Snow Light Snow
12:35 AM 19.4 °F 2.1 °F 14.0 °F 80% 29.53 in 3.0 mi SW 24.2 mph 32.2 mph N/A Snow Light Snow
12:55 AM 19.4 °F 2.8 °F 14.0 °F 80% 29.52 in 4.0 mi SW 21.9 mph 31.1 mph N/A Snow Light Snow
1:15 AM 19.4 °F 1.4 °F 14.0 °F 80% 29.50 in 3.0 mi SW 26.5 mph 34.5 mph N/A Snow Light Snow
1:35 AM 19.4 °F 2.5 °F 15.8 °F 86% 29.48 in 2.5 mi SW 23.0 mph 33.4 mph N/A Snow Light Snow
1:56 AM 19.4 °F 3.2 °F 15.8 °F 86% 29.46 in 2.5 mi SW 20.7 mph 33.4 mph N/A Snow Light Snow
2:16 AM 19.4 °F 1.8 °F 15.8 °F 86% 29.45 in 3.0 mi SW 25.3 mph 33.4 mph N/A   Overcast
2:36 AM 19.4 °F 1.8 °F 15.8 °F 86% 29.44 in 2.0 mi SW 25.3 mph 34.5 mph N/A Snow Light Snow
2:56 AM 21.2 °F 5.6 °F 17.6 °F 86% 29.42 in 4.0 mi SW 20.7 mph 28.8 mph N/A Snow Light Snow
3:16 AM 21.2 °F 5.6 °F 17.6 °F 86% 29.42 in 4.0 mi SW 20.7 mph 29.9 mph N/A Snow Light Snow
3:36 AM 21.2 °F 4.9 °F 17.6 °F 86% 29.41 in 3.0 mi SW 23.0 mph 32.2 mph N/A Snow Light Snow
3:56 AM 21.2 °F 4.5 °F 17.6 °F 86% 29.40 in 2.5 mi SW 24.2 mph 33.4 mph N/A Snow Light Snow
4:17 AM 21.2 °F 4.2 °F 17.6 °F 86% 29.38 in 3.0 mi SW 25.3 mph 35.7 mph N/A Snow Light Snow
4:32 AM 21.2 °F 4.9 °F 17.6 °F 86% 29.37 in 1.5 mi SW 23.0 mph 33.4 mph N/A Snow Light Snow
4:52 AM 21.2 °F 4.9 °F 17.6 °F 86% 29.37 in 1.0 mi SW 23.0 mph 29.9 mph N/A Snow Light Snow
5:12 AM 21.2 °F 4.9 °F 17.6 °F 86% 29.36 in 3.0 mi SW 23.0 mph 28.8 mph N/A Snow Light Snow
5:32 AM 21.2 °F 6.0 °F 19.4 °F 93% 29.35 in 1.2 mi SW 19.6 mph 28.8 mph N/A Snow Light Snow
5:52 AM 21.2 °F 6.4 °F 19.4 °F 93% 29.34 in 0.8 mi SW 18.4 mph 28.8 mph N/A Snow Light Snow
6:12 AM 21.2 °F 6.0 °F 19.4 °F 93% 29.33 in 0.8 mi SW 19.6 mph 28.8 mph N/A Snow Light Snow
6:32 AM 21.2 °F 5.2 °F 19.4 °F 93% 29.32 in 1.0 mi SW 21.9 mph 27.6 mph N/A Snow Light Snow
6:52 AM 23.0 °F 8.0 °F 19.4 °F 86% 29.32 in 1.8 mi SW 20.7 mph 28.8 mph N/A Snow Light Snow
7:12 AM 23.0 °F 8.0 °F 19.4 °F 86% 29.32 in 2.0 mi SW 20.7 mph 26.5 mph N/A Snow Light Snow
7:32 AM 23.0 °F 8.0 °F 19.4 °F 86% 29.32 in 2.5 mi SW 20.7 mph 26.5 mph N/A Snow Light Snow
7:52 AM 23.0 °F 8.7 °F 21.2 °F 93% 29.32 in 1.8 mi SW 18.4 mph 26.5 mph N/A Snow Light Snow
8:13 AM 24.8 °F 11.1 °F 21.2 °F 86% 29.32 in 1.2 mi SW 18.4 mph 25.3 mph N/A Snow Light Snow
8:33 AM 24.8 °F 12.4 °F 21.2 °F 86% 29.32 in 2.5 mi WSW 15.0 mph - N/A Snow Light Snow
8:53 AM 24.8 °F 11.9 °F 21.2 °F 86% 29.32 in 3.0 mi SW 16.1 mph 20.7 mph N/A Snow Light Snow
9:13 AM 24.8 °F 11.5 °F 21.2 °F 86% 29.31 in 0.2 mi SW 17.3 mph 24.2 mph N/A Snow Light Snow
9:33 AM 24.8 °F 12.9 °F 21.2 °F 86% 29.31 in 7.0 mi SW 13.8 mph 20.7 mph N/A Snow Light Snow
9:53 AM 24.8 °F 11.5 °F 21.2 °F 86% 29.30 in 10.0 mi SW 17.3 mph 20.7 mph N/A   Mostly Cloudy
10:13 AM 24.8 °F - 21.2 °F 86% 29.30 in 10.0 mi Calm Calm - N/A   Mostly Cloudy
10:33 AM 26.6 °F 16.2 °F 23.0 °F 86% 29.30 in 10.0 mi WSW 11.5 mph 17.3 mph N/A   Overcast
10:53 AM 28.4 °F 18.0 °F 21.2 °F 74% 29.30 in 10.0 mi West 12.7 mph 21.9 mph N/A   Mostly Cloudy
11:14 AM 28.4 °F 18.0 °F 23.0 °F 80% 29.31 in 7.0 mi WSW 12.7 mph 18.4 mph N/A   Mostly Cloudy
11:34 AM 28.4 °F 18.5 °F 24.8 °F 86% 29.31 in 0.8 mi West 11.5 mph - N/A Snow Light Snow
11:54 AM 26.6 °F 15.7 °F 23.0 °F 86% 29.31 in 0.8 mi West 12.7 mph - N/A Snow Light Snow
12:14 PM 26.6 °F 15.7 °F 19.4 °F 74% 29.32 in 7.0 mi North 12.7 mph 16.1 mph N/A Snow Snow
12:34 PM 24.8 °F 14.6 °F 19.4 °F 80% 29.33 in 10.0 mi NNW 10.4 mph 17.3 mph N/A   Mostly Cloudy
12:54 PM 23.0 °F 9.6 °F 19.4 °F 86% 29.35 in 0.2 mi NW 16.1 mph 28.8 mph N/A Snow Light Snow
1:14 PM 23.0 °F 9.2 °F 17.6 °F 80% 29.36 in 1.5 mi NW 17.3 mph 27.6 mph N/A Snow Light Snow
1:34 PM 24.8 °F 11.5 °F 15.8 °F 69% 29.37 in 7.0 mi NW 17.3 mph 24.2 mph N/A   Overcast
1:54 PM 23.0 °F 9.2 °F 12.2 °F 63% 29.38 in 7.0 mi NW 17.3 mph 25.3 mph N/A   Mostly Cloudy
2:15 PM 23.0 °F 8.0 °F 10.4 °F 59% 29.40 in 10.0 mi NW 20.7 mph 25.3 mph N/A   Mostly Cloudy
2:35 PM 21.2 °F 6.8 °F 10.4 °F 63% 29.41 in 7.0 mi WNW 17.3 mph 26.5 mph N/A   Mostly Cloudy
2:55 PM 21.2 °F 5.2 °F 6.8 °F 54% 29.42 in 5.0 mi NW 21.9 mph 28.8 mph N/A   Haze
3:15 PM 21.2 °F 7.3 °F 6.8 °F 54% 29.43 in 7.0 mi WNW 16.1 mph 27.6 mph N/A   Mostly Cloudy
3:35 PM 19.4 °F 3.6 °F 10.4 °F 68% 29.46 in 2.5 mi NW 19.6 mph 31.1 mph N/A Snow Light Snow
3:55 PM 17.6 °F 2.7 °F 12.2 °F 79% 29.48 in 2.0 mi NW 16.1 mph 24.2 mph N/A Snow Light Snow
4:15 PM 19.4 °F 5.5 °F 10.4 °F 68% 29.50 in 10.0 mi NW 15.0 mph 20.7 mph N/A   Overcast
4:35 PM 17.6 °F 1.7 °F 10.4 °F 73% 29.52 in 1.0 mi NW 18.4 mph 28.8 mph N/A Snow Light Snow
4:55 PM 17.6 °F 2.7 °F 6.8 °F 63% 29.53 in 7.0 mi WNW 16.1 mph 24.2 mph N/A   Overcast
5:15 PM 17.6 °F 0.9 °F 6.8 °F 63% 29.55 in 5.0 mi WNW 20.7 mph 25.3 mph N/A   Haze
5:35 PM 15.8 °F 0.3 °F 6.8 °F 68% 29.57 in 7.0 mi WNW 16.1 mph 21.9 mph N/A   Mostly Cloudy
5:55 PM 15.8 °F 0.9 °F 5.0 °F 62% 29.58 in 10.0 mi WNW 15.0 mph 20.7 mph N/A   Overcast
6:16 PM 15.8 °F 0.9 °F 1.4 °F 53% 29.60 in 10.0 mi WNW 15.0 mph 24.2 mph N/A   Overcast
6:36 PM 15.8 °F 0.3 °F -0.4 °F 49% 29.62 in 10.0 mi WNW 16.1 mph 24.2 mph N/A   Overcast
6:56 PM 14.0 °F -1.4 °F 1.4 °F 57% 29.64 in 10.0 mi NW 15.0 mph 20.7 mph N/A   Mostly Cloudy
7:16 PM 12.2 °F -2.5 °F -0.4 °F 57% 29.66 in 10.0 mi NW 12.7 mph - N/A   Scattered Clouds
7:36 PM 12.2 °F - -0.4 °F 57% 29.67 in 10.0 mi Calm Calm - N/A   Mostly Cloudy
7:56 PM 12.2 °F -5.3 °F -2.2 °F 53% 29.68 in 7.0 mi WNW 18.4 mph 25.3 mph N/A   Mostly Cloudy
8:16 PM 12.2 °F -3.1 °F -0.4 °F 57% 29.70 in 10.0 mi WNW 13.8 mph - N/A   Overcast
8:36 PM 10.4 °F -3.3 °F 1.4 °F 67% 29.71 in 10.0 mi WNW 10.4 mph - N/A   Overcast
8:57 PM 10.4 °F -4.1 °F -0.4 °F 62% 29.72 in 10.0 mi WNW 11.5 mph - N/A   Overcast
9:17 PM 10.4 °F - 1.4 °F 67% 29.72 in 10.0 mi Calm Calm - N/A   Overcast
9:32 PM 10.4 °F -3.3 °F 1.4 °F 67% 29.72 in 10.0 mi WNW 10.4 mph - N/A   Mostly Cloudy
9:52 PM 10.4 °F - 1.4 °F 67% 29.73 in 10.0 mi Calm Calm - N/A   Scattered Clouds
10:12 PM 10.4 °F 2.2 °F 1.4 °F 67% 29.74 in 10.0 mi WNW 4.6 mph - N/A   Mostly Cloudy
10:32 PM 10.4 °F -0.4 °F 1.4 °F 67% 29.75 in 7.0 mi WNW 6.9 mph - N/A   Overcast
10:52 PM 8.6 °F - 1.4 °F 73% 29.76 in 10.0 mi Calm Calm - N/A   Overcast
11:12 PM 8.6 °F - 1.4 °F 73% 29.77 in 10.0 mi Calm Calm - N/A   Overcast
11:32 PM 8.6 °F - 1.4 °F 73% 29.77 in 10.0 mi Calm Calm - N/A   Overcast
11:52 PM 8.6 °F - 1.4 °F 73% 29.77 in 10.0 mi Calm Calm - N/A   Overcast